Regional Weather Roundup
Issued by NWS

Home | Current Version | Previous Version | Text Only | Print | Product List | Glossary On
Versions: 1 2 3 4 5 6 7 8 9 10 11 12 13 14 15 16 17 18 19 20 21 22 23 24 25 26 27 28 29 30 31 32 33 34 35 36 37 38 39 40 41 42 43 44 45 46 47 48 49 50
000
ASUS43 KLSX 260059
RWRMO

WEATHER SUMMARY FOR MISSOURI
NATIONAL WEATHER SERVICE SPRINGFIELD MO
800 PM CDT FRI JUL 25 2014

NOTE: "FAIR" INDICATES FEW OR NO CLOUDS BELOW 12,000 FEET WITH NO
       SIGNIFICANT WEATHER AND/OR OBSTRUCTIONS TO VISIBILITY.
       CURRENT SKY AND/OR WEATHER CONDITIONS ARE NOT AVAILABLE FOR
       CHILLICOTHE AND FARMINGTON.

MOZ001>031-035>038-043-044-053-054-260200-
...NORTHERN AND WESTERN MISSOURI...

CITY           SKY/WX    TMP DP  RH WIND       PRES   REMARKS
KANSAS CTY INT MOCLDY    89  72  56 S17G23    29.77R HX  96
KANSAS C DTWN  MOCLDY    92  72  51 S15G25    29.76R HX  99
LEE`S SUMMIT   PTCLDY    88  73  61 SW15      29.79F HX  95
ST JOSEPH      CLEAR     90  75  61 S10       29.73S HX 100
CHILLICOTHE      N/A     87  76  69 S5        29.77S HX  97
KIRKSVILLE     PTCLDY    76  70  82 E6        29.83R

$$
MOZ066>068-077>081-088>096-101>105-260200-
...SOUTHWEST MISSOURI...

CITY           SKY/WX    TMP DP  RH WIND       PRES   REMARKS
SPRINGFIELD    CLEAR     86  68  54 S12       29.90S
JOPLIN         CLEAR     86  70  58 S14G25    29.89S HX  90

$$
MOZ032>034-039>042-045>050-055>058-069>072-260200-
...CENTRAL MISSOURI...

CITY           SKY/WX    TMP DP  RH WIND       PRES   REMARKS
COLUMBIA       CLEAR     85  72  65 S14       29.82S HX  91
JEFFERSON CITY CLEAR     86  70  58 S9        29.81F HX  90
ROLLA          CLEAR     81  67  62 S15       29.88S
SEDALIA        CLEAR     89  69  51 SW14      29.82S HX  93
OSAGE BEACH    PTCLDY    86  70  58 S9        29.86R HX  90

$$
MOZ051-052-059>065-260200-
...EAST CENTRAL MISSOURI...

CITY           SKY/WX    TMP DP  RH WIND       PRES   REMARKS
ST LOUIS INTL  MOCLDY    80  63  55 S9        29.87S
SPIRIT OF STL  PTCLDY    79  65  62 S6        29.84F
ST CHARLES     CLEAR     75  65  70 SE6       29.85S

$$
MOZ072>076-082>087-097>100-106>115-260200-
...SOUTH CENTRAL AND SOUTHEAST MISSOURI...

CITY           SKY/WX    TMP DP  RH WIND       PRES   REMARKS
CAPE GIRARDEAU MOCLDY    75  64  68 SW7       29.93S
FARMINGTON     PTCLDY    75  63  64 S15G21    29.95S
POPLAR BLUFF   PTCLDY    76  62  62 S5        29.93F
WEST PLAINS    PTCLDY    80  67  64 S9        29.96S

$$


USA.gov is the U.S. government's official web portal to all federal, state and local government web resources and services.